[[{"header":{"parameterUnit":"m.s-1","parameterCategory":1,"la1":30.2991,"la2":30.254,"lo1":-89.0895,"lo2":-89.0444,"dy":0.0017,"dx":0.0017,"nx":28,"ny":28,"refTime":"2024-03-09T09:00:00:Z","depth":0,"parameterNumber":2,"parameterNumberName":"U-component_of_WINDS"},"data":[0,0,0,0,0,0,0,0,0,0,0,0,0,0,0,0,0,0,0,0,0,0,0,0,0,0,0,0,0,0,0,0,0,0,0,0,0,0,0,0,0,0,0,0,0,0,0,0,0,0,0,0,0,0,0,0,0,0,0.8038,0.8039,0,0.8089,0.809,0.809,0.8106,0.8105,0.8105,0.8105,0.8158,0.8159,0.8161,0,0,0,0,0,0,0,0,0,0,0,0,0,0.7957,0.7959,0.8038,0.8039,0.804,0.8089,0.809,0.809,0.8106,0.8105,0.8105,0.8105,0.8157,0.8159,0.8161,0,0,0,0,0,0,0,0,0,0,0,0,0,0.7999,0.7959,0.8038,0.8053,0.8055,0.8089,0.809,0.809,0.8106,0.8105,0.8105,0.8104,0.8156,0.8159,0.8161,0.8184,0,0,0.8169,0.817,0,0,0,0,0,0,0,0,0.7996,0.8002,0.805,0.8052,0.8054,0.809,0.808,0.8122,0.8106,0.8086,0.8105,0.8104,0.8136,0.814,0.815,0.8187,0.8189,0.8169,0.8171,0.8172,0.8172,0,0,0,0,0,0,0,0.7993,0.7999,0.8058,0.8051,0.8053,0.8058,0.8064,0.8088,0.8113,0.8088,0.8089,0.8095,0.8137,0.8148,0.8152,0.819,0.8169,0.8171,0.8173,0.8174,0.825,0.825,0,0,0,0,0,0,0.7988,0.7997,0.8057,0.806,0.8024,0.806,0.8066,0.8079,0.8112,0.8117,0.8095,0.8096,0.8144,0.8149,0.8153,0.8184,0.8172,0.8174,0.8175,0.8249,0.825,0.825,0,0,0,0,0,0,0.7986,0.7993,0.8055,0.8029,0.8037,0.8062,0.8076,0.808,0.8092,0.8118,0.8122,0.8102,0.8144,0.815,0.8177,0.8186,0.8175,0.8177,0.8248,0.8249,0.825,0.8243,0,0,0,0,0,0,0.7983,0.7992,0.8,0.8029,0.8038,0.8076,0.8077,0.8082,0.8096,0.8096,0.8125,0.813,0.8144,0.8173,0.8179,0.8189,0.8179,0.8248,0.8249,0.825,0.8243,0.8244,0.8244,0,0,0,0,0,0.7981,0.7996,0.8001,0.8008,0.8049,0.8077,0.8082,0.8098,0.8096,0.8105,0.8123,0.8129,0.8184,0.8176,0.8183,0.8193,0.8247,0.8248,0.825,0.8242,0.8243,0.8244,0,0,0,0,0,0,0.7968,0.8,0.8005,0.8031,0.8051,0.8079,0.8091,0.8098,0.812,0.8119,0.8138,0.8145,0.8171,0.8185,0.8175,0.8218,0.8216,0.8219,0.8208,0.8209,0.821,0.8206,0.8181,0,0,0,0,0,0.7968,0.7987,0.8015,0.8034,0.8044,0.8066,0.8079,0.8089,0.8111,0.812,0.8139,0.816,0.8182,0.8197,0.8218,0.8245,0.8252,0.8256,0.8257,0.8257,0.8259,0.8276,0.8279,0.8254,0.8254,0.8254,0,0,0.7969,0.7989,0.8,0.8032,0.8049,0.807,0.8073,0.8094,0.811,0.8123,0.8149,0.8164,0.819,0.8217,0.823,0.823,0.8268,0.8259,0.8259,0.8261,0.8278,0.828,0.8282,0.8255,0.8255,0.8255,0,0,0.798,0.7997,0.8016,0.8033,0.8058,0.8073,0.8078,0.8105,0.8116,0.8143,0.8154,0.8173,0.8211,0.8229,0.8243,0.8263,0.827,0.827,0.8274,0.8291,0.8292,0.8294,0.8303,0.8305,0.8272,0.8272,0.8272,0,0.7977,0.8008,0.8024,0.8045,0.806,0.8073,0.8093,0.8109,0.8141,0.8151,0.815,0.8199,0.8217,0.8249,0.8254,0.8265,0.8272,0.8266,0.8291,0.8293,0.8295,0.8303,0.8306,0.8272,0.8272,0.8272,0.8272,0,0.8004,0.8025,0.8038,0.8068,0.8084,0.8105,0.8125,0.814,0.8149,0.8165,0.8193,0.8215,0.8242,0.8251,0.826,0.8285,0.8284,0.8287,0.8285,0.8297,0.8305,0.8308,0.8272,0.8272,0.8272,0.8272,0,0,0.8008,0.8048,0.8052,0.8067,0.8097,0.8115,0.8136,0.8163,0.8176,0.8198,0.8217,0.825,0.8253,0.8269,0.828,0.8295,0.8311,0.8296,0.8297,0.8298,0.8341,0.834,0.8343,0.8316,0.8317,0.8317,0.834,0,0.8023,0.8062,0.8078,0.811,0.8131,0.8145,0.8164,0.8185,0.82,0.8221,0.8238,0.8261,0.8262,0.8273,0.8287,0.8306,0.832,0.8304,0.8335,0.8336,0.8328,0.8347,0.8344,0.8364,0.8343,0.8343,0.8344,0,0.8046,0.8069,0.8102,0.8132,0.8141,0.8158,0.8185,0.8204,0.8229,0.8239,0.8258,0.8269,0.8294,0.8291,0.8326,0.8315,0.8329,0.834,0.8341,0.8345,0.834,0.8351,0.8371,0.8374,0.8349,0.8348,0.8348,0,0.8047,0.8085,0.8111,0.8123,0.8157,0.8169,0.8184,0.8209,0.8225,0.8248,0.8259,0.8285,0.83,0.832,0.8339,0.8335,0.8373,0.8371,0.8383,0.8383,0.839,0.8389,0.8413,0.8398,0.8398,0.8398,0.8398,0,0.8063,0.8083,0.8112,0.8127,0.8151,0.817,0.8194,0.821,0.8232,0.8252,0.8266,0.8284,0.8308,0.833,0.8345,0.8373,0.8379,0.8388,0.8392,0.8387,0.8386,0.8397,0.8396,0.8399,0.8399,0.8399,0.8399,0,0.8067,0.8087,0.8115,0.8146,0.8155,0.8171,0.8198,0.8214,0.8231,0.8256,0.8263,0.8289,0.8316,0.8337,0.8371,0.8382,0.8411,0.8415,0.8402,0.8404,0.8416,0.8414,0.8447,0.8452,0.8434,0.8434,0.8434,0,0.8075,0.8091,0.8124,0.8139,0.8154,0.8176,0.8193,0.8213,0.8229,0.826,0.8273,0.8301,0.8325,0.8367,0.839,0.8417,0.8422,0.8431,0.8426,0.8421,0.8423,0.8422,0.8424,0.8432,0.8432,0.8432,0.8432,0,0.8089,0.8099,0.8121,0.8148,0.8167,0.8189,0.8211,0.8222,0.8247,0.8265,0.8293,0.8311,0.8347,0.8375,0.8405,0.8422,0.8432,0.8434,0.8438,0.8433,0.8426,0.8431,0.8405,0.8433,0.8433,0.8433,0.8433,0.8433,0.8097,0.8112,0.8138,0.8163,0.8182,0.8203,0.8221,0.824,0.8263,0.8294,0.8305,0.8334,0.836,0.8401,0.8419,0.8442,0.8443,0.8449,0.845,0.8452,0.8452,0.8422,0.8448,0.8448,0.8448,0.8448,0.8448,0,0.8112,0.8129,0.8152,0.8184,0.8204,0.8211,0.8237,0.8254,0.8279,0.8303,0.8326,0.8358,0.8386,0.8411,0.8441,0.8455,0.846,0.8462,0.8461,0.8465,0.8449,0.8443,0.8457,0.8457,0.8457,0.8457,0.8457,0.8457,0.8122,0.8149,0.8162,0.8199,0.8217,0.8245,0.8259,0.8279,0.8299,0.8334,0.8358,0.8374,0.8399,0.843,0.8457,0.8463,0.8474,0.8475,0.8483,0.8467,0.8466,0.8465,0.8459,0.8477,0.8477,0.8497,0.8497,0.8497]},{"header":{"parameterUnit":"m.s-1","parameterCategory":1,"la1":30.2991,"la2":30.254,"lo1":-89.0895,"lo2":-89.0444,"dy":0.0017,"dx":0.0017,"nx":28,"ny":28,"refTime":"2024-03-09T09:00:00:Z","depth":0,"parameterNumber":3,"parameterNumberName":"V-component_of_WINDS"},"data":[0,0,0,0,0,0,0,0,0,0,0,0,0,0,0,0,0,0,0,0,0,0,0,0,0,0,0,0,0,0,0,0,0,0,0,0,0,0,0,0,0,0,0,0,0,0,0,0,0,0,0,0,0,0,0,0,0,0,-4.2697,-4.2698,0,-4.2758,-4.2758,-4.2759,-4.2789,-4.2789,-4.2789,-4.2789,-4.2846,-4.2847,-4.2849,0,0,0,0,0,0,0,0,0,0,0,0,0,-4.2606,-4.2608,-4.2697,-4.2698,-4.2699,-4.2757,-4.2758,-4.2759,-4.2789,-4.2789,-4.2789,-4.2789,-4.2846,-4.2847,-4.2849,0,0,0,0,0,0,0,0,0,0,0,0,0,-4.2654,-4.2608,-4.2697,-4.2721,-4.2724,-4.2757,-4.2758,-4.2759,-4.2789,-4.2789,-4.2789,-4.2789,-4.2845,-4.2847,-4.2849,-4.2862,0,0,-4.2856,-4.2857,0,0,0,0,0,0,0,0,-4.2651,-4.2657,-4.2717,-4.2719,-4.2723,-4.2766,-4.2747,-4.2794,-4.2789,-4.2764,-4.2789,-4.2789,-4.2819,-4.2823,-4.2834,-4.2865,-4.2867,-4.2856,-4.2858,-4.2859,-4.2859,0,0,0,0,0,0,0,-4.2648,-4.2655,-4.2721,-4.2718,-4.2721,-4.2728,-4.2735,-4.2756,-4.279,-4.2766,-4.2769,-4.2776,-4.2821,-4.2832,-4.2836,-4.2868,-4.2856,-4.2858,-4.286,-4.286,-4.2915,-4.2915,0,0,0,0,0,0,-4.2641,-4.2652,-4.2719,-4.2723,-4.2686,-4.273,-4.2737,-4.2752,-4.279,-4.2796,-4.2776,-4.2777,-4.2828,-4.2833,-4.2838,-4.2857,-4.2859,-4.2861,-4.2862,-4.2915,-4.2915,-4.2915,0,0,0,0,0,0,-4.2639,-4.2647,-4.2717,-4.2688,-4.2697,-4.2731,-4.2747,-4.2753,-4.2765,-4.2797,-4.2803,-4.2781,-4.2829,-4.2835,-4.2857,-4.286,-4.2862,-4.2864,-4.2915,-4.2915,-4.2915,-4.2895,0,0,0,0,0,0,-4.2636,-4.2646,-4.2651,-4.2688,-4.2699,-4.2735,-4.2748,-4.2754,-4.2769,-4.2771,-4.2804,-4.281,-4.2829,-4.2853,-4.2859,-4.2863,-4.2865,-4.2914,-4.2915,-4.2915,-4.2895,-4.2894,-4.2893,0,0,0,0,0,-4.2633,-4.2641,-4.2651,-4.2659,-4.2707,-4.2735,-4.2741,-4.2765,-4.2769,-4.2775,-4.2797,-4.2809,-4.2859,-4.2855,-4.2862,-4.2866,-4.2914,-4.2915,-4.2915,-4.2896,-4.2894,-4.2893,0,0,0,0,0,0,-4.2601,-4.2646,-4.2658,-4.2679,-4.2703,-4.274,-4.2748,-4.2762,-4.2784,-4.2785,-4.2812,-4.2819,-4.2839,-4.2855,-4.2851,-4.2882,-4.2888,-4.2889,-4.2871,-4.287,-4.2869,-4.2864,-4.2867,0,0,0,0,0,-4.2597,-4.2618,-4.2656,-4.267,-4.2683,-4.2713,-4.2726,-4.2743,-4.2768,-4.2778,-4.2801,-4.2824,-4.2846,-4.2859,-4.288,-4.2898,-4.2906,-4.2905,-4.2904,-4.2903,-4.2903,-4.2916,-4.2916,-4.2916,-4.2916,-4.2916,0,0,-4.2588,-4.2615,-4.2626,-4.2665,-4.2686,-4.2706,-4.2721,-4.2741,-4.2757,-4.2781,-4.2804,-4.2822,-4.2849,-4.287,-4.2881,-4.2884,-4.2906,-4.2903,-4.2902,-4.2903,-4.2917,-4.2917,-4.2917,-4.2916,-4.2916,-4.2916,0,0,-4.2582,-4.2604,-4.262,-4.2642,-4.2675,-4.2696,-4.27,-4.2735,-4.2749,-4.2773,-4.2793,-4.2811,-4.2846,-4.2866,-4.2881,-4.2887,-4.2899,-4.2893,-4.2887,-4.2899,-4.2899,-4.2899,-4.2902,-4.2903,-4.2893,-4.2893,-4.2893,0,-4.2565,-4.2598,-4.2626,-4.2647,-4.2664,-4.269,-4.2706,-4.2725,-4.2762,-4.2773,-4.2777,-4.2825,-4.2845,-4.2872,-4.2874,-4.2884,-4.289,-4.2888,-4.2897,-4.2898,-4.2898,-4.2901,-4.2902,-4.2892,-4.2893,-4.2893,-4.2893,0,-4.2577,-4.26,-4.2609,-4.2647,-4.2665,-4.2683,-4.2714,-4.2729,-4.2745,-4.2765,-4.2791,-4.2817,-4.2845,-4.2853,-4.2867,-4.2882,-4.2884,-4.2892,-4.2898,-4.2897,-4.29,-4.2902,-4.2891,-4.2891,-4.2892,-4.2892,0,0,-4.2549,-4.2607,-4.2609,-4.2628,-4.2668,-4.2685,-4.2706,-4.2736,-4.2748,-4.2774,-4.2791,-4.2823,-4.2832,-4.2849,-4.2866,-4.2877,-4.2882,-4.2884,-4.2885,-4.2883,-4.2902,-4.2895,-4.2896,-4.2891,-4.2891,-4.2891,-4.2899,0,-4.2549,-4.2588,-4.2616,-4.2644,-4.2666,-4.2693,-4.271,-4.2736,-4.2757,-4.2778,-4.28,-4.2823,-4.2833,-4.2843,-4.2855,-4.2878,-4.2886,-4.2878,-4.2907,-4.2908,-4.2899,-4.2897,-4.289,-4.2896,-4.2901,-4.2901,-4.2901,0,-4.2553,-4.2581,-4.2612,-4.2653,-4.2663,-4.2678,-4.2709,-4.2729,-4.276,-4.2775,-4.2795,-4.2814,-4.2837,-4.2842,-4.2873,-4.2868,-4.2882,-4.2895,-4.2896,-4.2899,-4.2904,-4.29,-4.2898,-4.2899,-4.2903,-4.2903,-4.2903,0,-4.2531,-4.2576,-4.2601,-4.2616,-4.2664,-4.2675,-4.2695,-4.2726,-4.2743,-4.277,-4.2782,-4.281,-4.2825,-4.2847,-4.2873,-4.2874,-4.2902,-4.2909,-4.2915,-4.2914,-4.2918,-4.2917,-4.2918,-4.2927,-4.2927,-4.2927,-4.2927,0,-4.2527,-4.2545,-4.2592,-4.2607,-4.2629,-4.2661,-4.2681,-4.2703,-4.2732,-4.2751,-4.2776,-4.2794,-4.2828,-4.285,-4.287,-4.2894,-4.29,-4.2912,-4.2917,-4.291,-4.2909,-4.2919,-4.2919,-4.2928,-4.2928,-4.2927,-4.2927,0,-4.2505,-4.2537,-4.2567,-4.2611,-4.2623,-4.2637,-4.2674,-4.269,-4.2714,-4.2739,-4.2747,-4.2783,-4.281,-4.2839,-4.2875,-4.289,-4.2913,-4.292,-4.2903,-4.2906,-4.291,-4.2909,-4.2917,-4.292,-4.2927,-4.2926,-4.2926,0,-4.25,-4.2515,-4.2562,-4.2579,-4.2599,-4.2625,-4.2644,-4.2677,-4.2695,-4.2734,-4.2745,-4.2776,-4.2801,-4.2844,-4.2873,-4.2902,-4.291,-4.2911,-4.2914,-4.2907,-4.291,-4.2909,-4.2911,-4.2909,-4.2908,-4.2908,-4.2908,0,-4.2488,-4.2505,-4.2532,-4.2566,-4.2589,-4.2617,-4.2645,-4.2657,-4.2695,-4.2715,-4.2745,-4.2765,-4.2805,-4.2835,-4.2868,-4.2887,-4.2904,-4.2908,-4.291,-4.2902,-4.2892,-4.2899,-4.29,-4.2907,-4.2907,-4.2907,-4.2907,-4.2907,-4.2475,-4.249,-4.2527,-4.2558,-4.2584,-4.2611,-4.2629,-4.2657,-4.2683,-4.2719,-4.2737,-4.2768,-4.2801,-4.2847,-4.2867,-4.2891,-4.2895,-4.2899,-4.29,-4.29,-4.2899,-4.2889,-4.2897,-4.2897,-4.2897,-4.2897,-4.2897,0,-4.2465,-4.2491,-4.2519,-4.256,-4.2585,-4.2602,-4.2635,-4.2654,-4.2681,-4.2711,-4.2738,-4.2773,-4.2803,-4.2836,-4.2868,-4.2881,-4.289,-4.2888,-4.2887,-4.2892,-4.2893,-4.2887,-4.2881,-4.2881,-4.2881,-4.2881,-4.2881,-4.2881,-4.2462,-4.2491,-4.2512,-4.2554,-4.258,-4.2612,-4.263,-4.2655,-4.268,-4.272,-4.2746,-4.2768,-4.28,-4.2835,-4.2863,-4.2872,-4.2883,-4.2879,-4.289,-4.289,-4.2891,-4.2892,-4.2888,-4.2881,-4.2881,-4.2887,-4.2887,-4.2887]}]]